Regional Weather Roundup
Issued by NWS Goodland, KS

Home | Current Version | Previous Version | Graphics & Text | Print | Product List | Glossary On
Versions: 1 2 3 4 5 6 7 8 9 10 11 12 13 14 15 16 17 18 19 20 21 22 23 24 25 26 27 28 29 30 31 32 33 34 35 36 37 38 39 40 41 42 43 44 45 46 47 48 49 50
382
ASUS43 KGLD 100608
RWRGLD

GOODLAND FORECAST AREA HOURLY WEATHER ROUNDUP
NATIONAL WEATHER SERVICE GOODLAND KS
1100 PM MST TUE FEB 09 2016

...OFFICIAL OBSERVATIONS...

CITY           SKY/WX    TMP DP  RH WIND       PRES   REMARKS
GOODLAND KS    CLEAR     37  26  64 W14       30.18F
HILL CITY KS   CLEAR     32  22  66 SW13      30.17F
IMPERIAL NEB   CLEAR     35  27  72 W12       30.13F
MCCOOK NEB     CLOUDY    30  26  85 W9        30.13F
AKRON CO       CLOUDY    32  24  72 W14       30.20F
BURLINGTON CO  CLEAR     33  24  69 SW13      30.21F
LIMON CO       CLOUDY    27  19  72 NW9       30.26F
$$

...UNOFFICIAL OBSERVATIONS...

CITY           SKY/WX    TMP DP  RH WIND       PRES   REMARKS
COLBY KS       CLEAR     36  30  80 W16       30.17F
GOVE KS          N/A     28  32 100 MISG        N/A
LENORA KS        N/A     29  32 100 MISG        N/A
NORTON KS      CLEAR     30  21  69 SW10      30.12F
SHARON SPRINGS   N/A     36  29  74 W13         N/A
KIT CARSON CO    N/A     33  25  72 MISG        N/A
YUMA CO          N/A     35  27  74 W12         N/A
$$




USA.gov is the U.S. government's official web portal to all federal, state and local government web resources and services.